Date String (YYYY-MM-DD hh:mm:ss) UTC,Instrument flags,Ambient pressure (hPa),Sample flow (lpm),Bypass flow (lpm),Sample temperature (°C),Ambient temperature (°C),ASC tube jacket temperature (°C),LED temperature (°C),Box temperature (°C),Sample RH (%),Span deviation,Mass concentration (μg/m³),Mass concentration (μg/m³),Mass concentration (μg/m³)
DateTimeUTC,F1_M11,P_M11,Q1_M11,Q2_M11,T1_M11,T2_M11,T3_M11,T4_M11,T5_M11,U1_M11,ZSPAN_M11,X0_M11,X2_M11,X1_M11
2022-06-04 21:00:00,,0820.0,5.01,0.00,29.1,27.0,00.0,37.9,30.8,16.7,0000.0,0012.62,0003.85,0002.79
2022-06-04 21:01:00,,0820.0,5.00,0.00,29.0,27.2,00.0,37.9,30.9,15.6,0000.0,0012.34,0003.81,0002.79
2022-06-04 21:02:00,,0820.0,4.99,0.00,29.0,27.4,00.0,37.9,30.9,16.1,0000.0,0011.95,0003.76,0002.79
2022-06-04 21:03:00,,0820.0,4.99,0.00,29.1,27.6,00.0,37.9,31.0,15.5,0000.0,0011.68,0003.72,0002.78
2022-06-04 21:04:00,,0820.0,5.00,0.00,29.1,27.8,00.0,37.9,31.0,16.9,0000.0,0012.00,0003.73,0002.79
2022-06-04 21:05:00,,0820.0,5.00,0.00,29.1,27.9,00.0,37.9,31.1,16.8,0000.0,0013.10,0003.73,0002.76
2022-06-04 21:06:00,,0820.0,5.01,0.00,29.2,28.1,00.0,37.9,31.2,17.5,0000.0,0014.17,0003.74,0002.75
2022-06-04 21:07:00,,0820.0,5.00,0.00,29.2,28.2,00.0,37.9,31.2,18.1,0000.0,0015.76,0003.78,0002.76
2022-06-04 21:08:00,,0820.0,4.99,0.00,29.2,28.4,00.0,38.0,31.3,18.1,0000.0,0015.81,0003.80,0002.77
2022-06-04 21:09:00,,0820.0,5.00,0.00,29.3,28.5,00.0,38.0,31.3,15.0,0000.0,0014.17,0003.74,0002.75
2022-06-04 21:10:00,,0819.9,5.00,0.00,29.3,28.3,00.0,38.0,31.3,15.1,0000.0,0013.56,0003.75,0002.75
2022-06-04 21:11:00,,0819.9,5.01,0.00,29.3,27.4,00.0,37.9,31.1,15.6,0000.0,0013.43,0003.79,0002.76
2022-06-04 21:12:00,,0819.9,4.98,0.00,29.2,26.9,00.0,37.9,30.9,15.9,0000.0,0014.15,0003.80,0002.78
2022-06-04 21:13:00,,0819.9,5.00,0.00,29.1,26.9,00.0,37.9,30.8,16.8,0000.0,0014.37,0003.84,0002.79
2022-06-04 21:14:00,,0819.9,5.00,0.00,29.1,27.0,00.0,37.9,30.8,17.9,0000.0,0015.40,0003.86,0002.79
2022-06-04 21:15:00,,0819.9,5.00,0.00,29.0,27.1,00.0,37.9,30.9,18.7,0000.0,0015.23,0003.85,0002.80
2022-06-04 21:16:00,,0819.9,5.00,0.00,29.0,27.3,00.0,37.9,30.9,16.7,0000.0,0014.08,0003.82,0002.81
2022-06-04 21:17:00,,0819.9,5.00,0.00,29.1,27.5,00.0,37.9,31.0,17.1,0000.0,0013.50,0003.82,0002.81
2022-06-04 21:18:00,,0819.9,5.01,0.00,29.1,27.7,00.0,37.9,31.0,16.0,0000.0,0011.93,0003.80,0002.82
2022-06-04 21:19:00,,0820.0,5.01,0.00,29.1,27.9,00.0,37.9,31.1,16.2,0000.0,0011.59,0003.79,0002.82
2022-06-04 21:20:00,,0819.9,5.00,0.00,29.1,28.0,00.0,37.9,31.1,16.7,0000.0,0011.41,0003.77,0002.80
2022-06-04 21:21:00,,0819.9,4.99,0.00,29.2,28.2,00.0,37.9,31.2,16.4,0000.0,0011.86,0003.75,0002.77
2022-06-04 21:22:00,,0819.9,5.00,0.00,29.2,28.3,00.0,38.0,31.2,16.2,0000.0,0011.76,0003.71,0002.76
2022-06-04 21:23:00,,0819.9,5.01,0.00,29.3,28.4,00.0,38.0,31.3,16.1,0000.0,0012.36,0003.72,0002.74
2022-06-04 21:24:00,,0819.9,5.00,0.00,29.3,28.5,00.0,38.0,31.3,15.8,0000.0,0013.10,0003.71,0002.73
2022-06-04 21:25:00,,0819.9,5.00,0.00,29.3,27.8,00.0,38.0,31.2,16.2,0000.0,0013.35,0003.70,0002.72
2022-06-04 21:26:00,,0819.9,4.99,0.00,29.3,27.5,00.0,37.9,31.1,15.4,0000.0,0013.84,0003.70,0002.72
2022-06-04 21:27:00,,0820.0,5.02,0.00,29.2,27.4,00.0,37.9,31.0,14.9,0000.0,0013.97,0003.72,0002.74
2022-06-04 21:28:00,,0820.0,5.00,0.00,29.2,27.5,00.0,38.0,31.0,15.3,0000.0,0013.50,0003.70,0002.72
2022-06-04 21:29:00,,0820.0,5.00,0.00,29.2,27.6,00.0,38.0,31.1,15.5,0000.0,0013.82,0003.72,0002.69
2022-06-04 21:30:00,,0819.9,5.01,0.00,29.2,27.8,00.0,38.0,31.1,15.3,0000.0,0013.87,0003.73,0002.67
2022-06-04 21:31:00,,0820.0,4.99,0.00,29.2,27.9,00.0,38.0,31.2,14.5,0000.0,0014.42,0003.75,0002.67
2022-06-04 21:32:00,,0820.0,5.01,0.00,29.3,28.1,00.0,38.0,31.2,15.3,0000.0,0014.33,0003.76,0002.67
2022-06-04 21:33:00,,0820.0,5.01,0.00,29.3,28.2,00.0,38.0,31.3,16.0,0000.0,0014.32,0003.80,0002.67
2022-06-04 21:34:00,,0820.0,4.99,0.00,29.3,28.4,00.0,38.0,31.3,15.6,0000.0,0013.47,0003.82,0002.68
2022-06-04 21:35:00,,0820.0,5.01,0.00,29.3,28.5,00.0,38.1,31.3,14.5,0000.0,0012.39,0003.80,0002.67
2022-06-04 21:36:00,,0820.0,5.00,0.00,29.4,28.0,00.0,38.0,31.2,15.4,0000.0,0011.14,0003.79,0002.65
2022-06-04 21:37:00,,0820.0,5.00,0.00,29.3,27.2,00.0,38.0,31.0,16.0,0000.0,0011.18,0003.78,0002.61
2022-06-04 21:38:00,,0820.0,5.01,0.00,29.2,26.9,00.0,37.9,30.9,16.1,0000.0,0011.10,0003.74,0002.57
2022-06-04 21:39:00,,0820.0,5.00,0.00,29.1,26.9,00.0,37.9,30.9,17.7,0000.0,0011.10,0003.71,0002.55
2022-06-04 21:40:00,,0819.9,4.99,0.00,29.1,27.0,00.0,37.9,30.9,17.5,0000.0,0010.76,0003.69,0002.54
2022-06-04 21:41:00,,0820.0,5.01,0.00,29.1,27.2,00.0,37.9,30.9,17.2,0000.0,0010.95,0003.67,0002.52
2022-06-04 21:42:00,,0819.9,5.00,0.00,29.1,27.4,00.0,37.9,31.0,16.3,0000.0,0011.06,0003.64,0002.49
2022-06-04 21:43:00,,0819.9,4.99,0.00,29.1,27.6,00.0,37.9,31.0,15.6,0000.0,0010.33,0003.58,0002.47
2022-06-04 21:44:00,,0819.9,5.00,0.00,29.1,27.8,00.0,37.9,31.1,15.3,0000.0,0009.78,0003.50,0002.43
2022-06-04 21:45:00,,0819.9,5.02,0.00,29.1,27.9,00.0,37.9,31.1,16.4,0000.0,0009.81,0003.47,0002.40
2022-06-04 21:46:00,,0819.9,4.99,0.00,29.2,28.1,00.0,38.0,31.2,18.8,0000.0,0009.55,0003.47,0002.38
2022-06-04 21:47:00,,0819.9,5.00,0.00,29.2,28.2,00.0,38.0,31.2,18.5,0000.0,0009.23,0003.45,0002.37
2022-06-04 21:48:00,,0819.9,5.01,0.00,29.3,28.4,00.0,38.0,31.3,16.8,0000.0,0009.26,0003.46,0002.37
2022-06-04 21:49:00,,0819.9,5.00,0.00,29.3,28.5,00.0,38.0,31.3,17.4,0000.0,0009.28,0003.45,0002.38
2022-06-04 21:50:00,,0819.9,5.00,0.00,29.4,28.5,00.0,38.0,31.4,16.6,0000.0,0010.09,0003.47,0002.39
2022-06-04 21:51:00,,0819.9,5.01,0.00,29.4,28.0,00.0,38.0,31.2,16.3,0000.0,0010.06,0003.46,0002.41
2022-06-04 21:52:00,,0820.0,5.00,0.00,29.3,27.1,00.0,38.0,31.0,17.6,0000.0,0009.71,0003.46,0002.40
2022-06-04 21:53:00,,0820.0,5.02,0.00,29.2,26.8,00.0,37.9,30.9,17.5,0000.0,0009.25,0003.47,0002.40
2022-06-04 21:54:00,,0820.0,5.00,0.00,29.1,26.9,00.0,37.9,30.8,17.1,0000.0,0009.57,0003.51,0002.40
2022-06-04 21:55:00,,0820.0,5.00,0.00,29.1,27.0,00.0,37.9,30.9,17.2,0000.0,0009.88,0003.56,0002.40
2022-06-04 21:56:00,,0820.1,4.99,0.00,29.1,27.2,00.0,37.9,30.9,17.0,0000.0,0009.89,0003.60,0002.41
2022-06-04 21:57:00,,0820.1,5.00,0.00,29.1,27.4,00.0,37.9,30.9,17.5,0000.0,0009.74,0003.57,0002.41
2022-06-04 21:58:00,,0820.2,5.00,0.00,29.1,27.6,00.0,37.9,31.0,17.4,0000.0,0009.70,0003.60,0002.41
2022-06-04 21:59:00,,0820.2,5.00,0.00,29.1,27.8,00.0,37.9,31.1,17.5,0000.0,0009.33,0003.58,0002.42
